Niamtougou International Airport

Jump to: basic info | weather | frequencies | runways | comments

Related pages: nearby airports | nearby navaids | notams | map

Basic information (top)

Codes: LRL DXNG
Location: lon 9.767330, lat 1.091250, elev 1,515 ft / 462 m msl
Status: medium_airport
Scheduled airline service: no
Links: Wikipedia Mobile

Weather (top)

Current conditions (rec'd 2015/04/22 00:00Z):

DXNG 220000Z 22006KT CAVOK 30/20 Q1014

Airport forecast (rec'd 2015/04/21 18:45Z):

TAF TAF DXNG 211700Z 2118/2218 VRB05KT 9999 FEW010

Frequencies (top)

Verify before use: may be inaccurate or out of date.

A/G: 122.6 MHz (A/G VOICE RDO)
AFIS: 658.6 MHz (AFIS)
TWR: 118.3 MHz (TWR)

Runways (top)

03/21: 8,202 x 148 ft (2,500 x 45 m) — paved — lighted

Latest comments (top)

No comments yet for Niamtougou International Airport

More... (top)

See also NOTAMs and nearby airports and navaids, or visit the Niamtougou International Airport page at the main OurAirports website..